Date String (YYYY-MM-DD hh:mm:ss) UTC,Instrument flags,Ambient pressure (hPa),Sample flow (lpm),Bypass flow (lpm),Sample temperature (°C),Ambient temperature (°C),ASC tube jacket temperature (°C),LED temperature (°C),Box temperature (°C),Sample RH (%),Span deviation,Mass concentration (μg/m³),Mass concentration (μg/m³),Mass concentration (μg/m³)
DateTimeUTC,F1_M11,P_M11,Q1_M11,Q2_M11,T1_M11,T2_M11,T3_M11,T4_M11,T5_M11,U1_M11,ZSPAN_M11,X0_M11,X2_M11,X1_M11
2022-12-10 18:00:00,,0826.3,4.99,0.00,23.8,22.7,00.0,32.6,25.7,08.8,0000.0,0009.38,0003.98,0003.45
2022-12-10 18:01:00,,0826.2,5.01,0.00,23.8,22.7,00.0,32.6,25.7,08.7,0000.0,0009.95,0004.04,0003.47
2022-12-10 18:02:00,,0826.2,5.02,0.00,23.9,22.7,00.0,32.6,25.8,08.7,0000.0,0010.41,0004.07,0003.49
2022-12-10 18:03:00,,0826.2,4.99,0.00,23.9,22.7,00.0,32.6,25.8,08.6,0000.0,0010.17,0004.10,0003.51
2022-12-10 18:04:00,,0826.2,4.99,0.00,23.9,22.7,00.0,32.6,25.8,08.5,0000.0,0009.72,0004.11,0003.52
2022-12-10 18:05:00,,0826.2,5.02,0.00,23.9,22.7,00.0,32.6,25.8,08.4,0000.0,0009.56,0004.10,0003.51
2022-12-10 18:06:00,,0826.2,5.02,0.00,23.9,22.7,00.0,32.6,25.8,08.3,0000.0,0009.43,0004.08,0003.50
2022-12-10 18:07:00,,0826.2,4.99,0.00,23.9,22.7,00.0,32.6,25.8,08.2,0000.0,0009.08,0004.04,0003.50
2022-12-10 18:08:00,,0826.2,4.98,0.00,23.9,22.7,00.0,32.7,25.9,08.2,0000.0,0008.91,0004.04,0003.51
2022-12-10 18:09:00,,0826.2,5.00,0.00,23.9,22.7,00.0,32.7,25.9,08.3,0000.0,0008.41,0004.09,0003.52
2022-12-10 18:10:00,,0826.2,5.01,0.00,23.9,22.7,00.0,32.7,25.9,08.2,0000.0,0008.44,0004.09,0003.53
2022-12-10 18:11:00,,0826.2,5.02,0.00,23.9,22.7,00.0,32.7,25.9,08.1,0000.0,0008.56,0004.07,0003.53
2022-12-10 18:12:00,,0826.2,4.99,0.00,23.9,22.7,00.0,32.7,25.9,08.4,0000.0,0008.63,0004.06,0003.54
2022-12-10 18:13:00,,0826.2,4.98,0.00,23.9,22.7,00.0,32.7,25.9,08.5,0000.0,0008.00,0004.07,0003.56
2022-12-10 18:14:00,,0826.2,4.99,0.00,23.9,22.7,00.0,32.7,25.9,08.1,0000.0,0008.34,0004.08,0003.58
2022-12-10 18:15:00,,0826.2,5.01,0.00,24.0,22.7,00.0,32.7,25.9,08.2,0000.0,0008.46,0004.10,0003.61
2022-12-10 18:16:00,,0826.1,5.01,0.00,24.0,22.7,00.0,32.7,25.9,08.2,0000.0,0008.41,0004.11,0003.65
2022-12-10 18:17:00,,0826.2,4.99,0.00,24.0,22.7,00.0,32.7,25.9,08.3,0000.0,0008.57,0004.17,0003.68
2022-12-10 18:18:00,,0826.1,4.99,0.00,24.0,22.8,00.0,32.7,25.9,08.2,0000.0,0008.67,0004.21,0003.72
2022-12-10 18:19:00,,0826.1,5.01,0.00,24.0,22.8,00.0,32.7,25.9,07.7,0000.0,0008.98,0004.23,0003.74
2022-12-10 18:20:00,,0826.2,5.02,0.00,24.0,22.8,00.0,32.7,25.9,07.6,0000.0,0009.03,0004.21,0003.74
2022-12-10 18:21:00,,0826.1,5.00,0.00,24.0,22.8,00.0,32.8,25.9,07.5,0000.0,0009.01,0004.22,0003.75
2022-12-10 18:22:00,,0826.1,4.98,0.00,24.0,22.8,00.0,32.8,25.9,07.7,0000.0,0009.10,0004.25,0003.76
2022-12-10 18:23:00,,0826.1,4.99,0.00,24.0,22.8,00.0,32.8,25.9,07.8,0000.0,0010.27,0004.25,0003.77
2022-12-10 18:24:00,,0826.0,5.02,0.00,24.0,22.8,00.0,32.8,26.0,07.9,0000.0,0010.31,0004.25,0003.77
2022-12-10 18:25:00,,0826.0,5.01,0.00,24.0,22.8,00.0,32.8,26.0,07.9,0000.0,0010.00,0004.25,0003.79
2022-12-10 18:26:00,,0826.0,4.99,0.00,24.0,22.8,00.0,32.8,26.0,08.0,0000.0,0010.04,0004.29,0003.79
2022-12-10 18:27:00,,0826.0,4.99,0.00,24.0,22.8,00.0,32.8,25.9,07.9,0000.0,0010.13,0004.31,0003.79
2022-12-10 18:28:00,,0826.0,5.00,0.00,24.0,22.8,00.0,32.8,26.0,07.8,0000.0,0010.05,0004.30,0003.80
2022-12-10 18:29:00,,0826.0,5.01,0.00,24.0,22.8,00.0,32.8,26.0,07.8,0000.0,0010.07,0004.34,0003.80
2022-12-10 18:30:00,,0826.0,5.01,0.00,24.0,22.8,00.0,32.8,26.0,07.9,0000.0,0009.95,0004.39,0003.83
2022-12-10 18:31:00,,0826.0,4.99,0.00,24.0,22.9,00.0,32.8,26.0,07.8,0000.0,0010.22,0004.41,0003.87
2022-12-10 18:32:00,,0826.0,4.99,0.00,24.0,22.9,00.0,32.8,26.0,07.9,0000.0,0010.47,0004.43,0003.91
2022-12-10 18:33:00,,0826.0,4.99,0.00,24.0,22.9,00.0,32.8,26.0,07.8,0000.0,0010.31,0004.43,0003.95
2022-12-10 18:34:00,,0825.9,5.01,0.00,24.0,22.9,00.0,32.8,26.0,07.9,0000.0,0008.95,0004.46,0003.99
2022-12-10 18:35:00,,0825.9,5.02,0.00,24.1,22.9,00.0,32.8,26.0,07.9,0000.0,0008.75,0004.50,0004.03
2022-12-10 18:36:00,,0825.8,5.01,0.00,24.1,22.9,00.0,32.8,26.0,07.8,0000.0,0008.83,0004.53,0004.05
2022-12-10 18:37:00,,0825.9,4.98,0.00,24.1,22.9,00.0,32.8,26.0,07.9,0000.0,0008.71,0004.52,0004.08
2022-12-10 18:38:00,,0825.8,4.99,0.00,24.1,22.9,00.0,32.8,26.0,08.1,0000.0,0008.73,0004.56,0004.11
2022-12-10 18:39:00,,0826.1,5.01,0.00,24.1,22.9,00.0,32.9,26.0,08.0,0000.0,0008.84,0004.61,0004.15
2022-12-10 18:40:00,,0825.8,5.02,0.00,24.1,23.0,00.0,32.9,26.0,08.0,0000.0,0008.88,0004.65,0004.18
2022-12-10 18:41:00,,0825.8,5.00,0.00,24.1,23.0,00.0,32.9,26.1,07.9,0000.0,0008.88,0004.71,0004.21
2022-12-10 18:42:00,,0826.3,4.99,0.00,24.1,23.0,00.0,32.9,26.1,07.8,0000.0,0008.64,0004.76,0004.23
2022-12-10 18:43:00,,0825.9,4.99,0.00,24.2,23.0,00.0,32.9,26.1,07.8,0000.0,0008.57,0004.83,0004.24
2022-12-10 18:44:00,,0825.7,5.00,0.00,24.2,23.0,00.0,32.9,26.1,07.8,0000.0,0008.93,0004.85,0004.25
2022-12-10 18:45:00,,0825.7,5.01,0.00,24.2,23.0,00.0,32.9,26.1,07.8,0000.0,0009.48,0004.87,0004.25
2022-12-10 18:46:00,,0825.6,5.01,0.00,24.2,23.0,00.0,32.9,26.1,07.8,0000.0,0009.65,0004.90,0004.25
2022-12-10 18:47:00,,0825.6,4.98,0.00,24.2,23.0,00.0,32.9,26.1,07.7,0000.0,0009.85,0004.91,0004.25
2022-12-10 18:48:00,,0825.6,4.99,0.00,24.2,23.0,00.0,32.9,26.1,07.7,0000.0,0009.87,0004.92,0004.25
2022-12-10 18:49:00,,0825.5,5.01,0.00,24.2,23.0,00.0,33.0,26.1,07.8,0000.0,0010.20,0004.89,0004.23
2022-12-10 18:50:00,,0825.5,5.03,0.00,24.2,23.1,00.0,33.0,26.1,07.8,0000.0,0010.21,0004.87,0004.20
2022-12-10 18:51:00,,0825.5,5.00,0.00,24.2,23.1,00.0,33.0,26.1,07.8,0000.0,0010.21,0004.84,0004.18
2022-12-10 18:52:00,,0825.4,4.99,0.00,24.2,23.1,00.0,33.0,26.2,07.8,0000.0,0010.64,0004.79,0004.16
2022-12-10 18:53:00,,0825.4,4.99,0.00,24.2,23.1,00.0,33.0,26.2,07.8,0000.0,0010.82,0004.74,0004.12
2022-12-10 18:54:00,,0825.4,5.02,0.00,24.2,23.1,00.0,33.0,26.2,07.9,0000.0,0010.77,0004.70,0004.10
2022-12-10 18:55:00,,0825.4,5.02,0.00,24.3,23.1,00.0,33.0,26.2,07.8,0000.0,0010.79,0004.71,0004.08
2022-12-10 18:56:00,,0825.4,5.00,0.00,24.3,23.1,00.0,33.0,26.2,07.7,0000.0,0010.25,0004.71,0004.06
2022-12-10 18:57:00,,0825.4,4.99,0.00,24.3,23.1,00.0,33.0,26.2,07.8,0000.0,0010.12,0004.66,0004.03
2022-12-10 18:58:00,,0825.4,4.98,0.00,24.3,23.1,00.0,33.0,26.2,07.8,0000.0,0009.81,0004.64,0004.02
2022-12-10 18:59:00,,0825.3,5.01,0.00,24.3,23.1,00.0,33.0,26.3,07.7,0000.0,0009.78,0004.63,0004.01
